(284610) = 2002 TU370 = 2004 BU162 = 2007 TP449

Discovered at Catalina on 2007-10-10 by CSS.

Orbit

Orbit type: Main Belt

Note: WebGL enabled browser required.

epoch2024-03-31.0
epoch JD2460400.5
perihelion date2021-10-21.07588
perihelion JD2459508.57588
argument of perihelion (°)170.15218
ascending node (°)151.18236
inclination (°)12.40596
eccentricity0.0442297
perihelion distance (AU)2.7920020
Tisserand w.r.t. Jupiter3.2
ΔV w.r.t. Earth (km/sec)11.1
semimajor axis (AU)2.9212061
mean anomaly (°)176.07125
mean daily motion (°/day)0.19740610
aphelion distance (AU)3.050
period (years)4.99
P-vector [x]0.78273211
P-vector [y]-0.58462289
P-vector [z]-0.21341631
Q-vector [x]0.61368274
Q-vector [y]0.78208097
Q-vector [z]0.10836447
absolute magnitude15.72
phase slope0.15
uncertainty0
referenceMPEC 2024-E02
observations used415
oppositions20
arc length (days)10106
first opposition used1996
last opposition used2024
residual rms (arc-secs)0.82
perturbers coarse indicatorM-v
perturbers precise indicator003Ek
first observation date used1996-06-18.0
last observation date used2024-02-18.0
computer nameMPCLINUX
JD of orbit computation2456819.405044
perihelion JD uncertainty (days)3.9256E-04
argument of perihelion uncertainty (°)8.0564E-05
ascending node uncertainty (°)2.7794E-05
inclination uncertainty (°)5.7318E-06
eccentricity uncertainty 6.2339E-08
perihelion distance uncertainty (AU)1.8889E-07
Minimum Orbit Intersection Distances (in AU)
for orbit epoch: 2460400.5, reference: E2024-GB3
Mercury2.37255
Venus2.06705
Earth1.7804
Mars1.37502
Jupiter2.15977
Saturn6.08407
Uranus15.3993
Neptune26.9783

Observations

441 total observations over interval: 1996 06 18.41197 – 2024 02 18.326856
These data are available for download (format description).

Date (UT) J2000 RA J2000 Dec Magn Location Ref
1996 06 18.41197 20 36 54.18 -07 42 22.2 20.4 V 691 – Steward Observatory, Kitt Peak-Spacewatch MPS 326415
1996 06 18.43357 20 36 53.78 -07 42 24.3   691 – Steward Observatory, Kitt Peak-Spacewatch MPS 326415
1996 06 18.45506 20 36 53.38 -07 42 26.1   691 – Steward Observatory, Kitt Peak-Spacewatch MPS 326415
2001 07 31.67790 20 11 52.67 -10 57 45.3 18.9 R 413 – Siding Spring Observatory MPS 326415
2001 07 31.68166 20 11 52.47 -10 57 46.8   413 – Siding Spring Observatory MPS 326415
2001 07 31.68426 20 11 52.37 -10 57 47.8   413 – Siding Spring Observatory MPS 326415
2002 10 10.43609 03 08 44.346 +00 42 22.07 20.33 V 645 – Apache Point-Sloan Digital Sky Survey MPS 83390
2002 10 10.436090 03 08 44.345 +00 42 22.08 20.32 V 645 – Apache Point-Sloan Digital Sky Survey MPS 83390
2002 10 10.439562 03 08 44.233 +00 42 20.65 21.18   645 – Apache Point-Sloan Digital Sky Survey MPS 83390
2002 10 11.448250 03 08 12.766 +00 35 17.35 20.10 V 645 – Apache Point-Sloan Digital Sky Survey MPS 83390
2002 10 11.451722 03 08 12.651 +00 35 15.87 20.93   645 – Apache Point-Sloan Digital Sky Survey MPS 83390
2002 11 06.33492 02 49 57.21 -02 01 24.6 19.9   644 – Palomar Mountain/NEAT MPS 326415
2002 11 06.35610 02 49 56.19 -02 01 30.1 20.1   644 – Palomar Mountain/NEAT MPS 326415
2002 11 06.37727 02 49 55.16 -02 01 36.3 20.0   644 – Palomar Mountain/NEAT MPS 326415
2004 01 16.29918 08 36 09.49 +09 58 46.8 20.1   644 – Palomar Mountain/NEAT MPS 212424
2004 01 16.36677 08 36 06.22 +09 59 08.3 19.7   644 – Palomar Mountain/NEAT MPS 212424
2004 01 16.43184 08 36 03.09 +09 59 29.7 20.2   644 – Palomar Mountain/NEAT MPS 212424
2004 01 23.34032 08 30 29.44 +10 38 43.7 19.6   704 – Lincoln Laboratory ETS, New Mexico MPS 212424
2004 01 23.37897 08 30 27.46 +10 38 57.4 20.2   704 – Lincoln Laboratory ETS, New Mexico MPS 212424
2004 01 23.39211 08 30 26.75 +10 39 02.9 20.4   704 – Lincoln Laboratory ETS, New Mexico MPS 212424
2004 04 13.165660 08 10 54.378 +17 13 50.46 21.44 V 645 – Apache Point-Sloan Digital Sky Survey MPS 326415
2004 04 13.169132 08 10 54.494 +17 13 50.89 22.13   645 – Apache Point-Sloan Digital Sky Survey MPS 326415
2005 04 13.35794 14 09 11.01 +03 20 07.5 18.9 R 703 – Catalina Sky Survey MPS 327380
2005 04 13.36449 14 09 10.71 +03 20 11.6 20.4 R 703 – Catalina Sky Survey MPS 327380
2005 04 13.37102 14 09 10.39 +03 20 12.3 19.3 R 703 – Catalina Sky Survey MPS 327380
2005 04 13.37759 14 09 10.12 +03 20 14.9 19.3 R 703 – Catalina Sky Survey MPS 327380
2006 05 25.42217 20 37 53.68 -07 53 35.5 20.6 V 691 – Steward Observatory, Kitt Peak-Spacewatch MPS 326415
2006 05 25.43959 20 37 53.94 -07 53 33.9 20.8 V 691 – Steward Observatory, Kitt Peak-Spacewatch MPS 326415
2006 05 25.45700 20 37 54.21 -07 53 31.6 21.0 V 691 – Steward Observatory, Kitt Peak-Spacewatch MPS 326415
2007 10 10.33943 03 07 13.29 +00 38 50.8 21.0 V 703 – Catalina Sky Survey MPS 326415
2007 10 10.35095 03 07 12.97 +00 38 48.1 19.9 V 703 – Catalina Sky Survey MPS 326415
2007 10 10.36250 03 07 12.61 +00 38 42.4 20.4 V 703 – Catalina Sky Survey MPS 326415
2007 10 10.37407 03 07 12.28 +00 38 36.4 20.1 V 703 – Catalina Sky Survey MPS 326415
2007 10 19.34471 03 01 54.69 -00 23 13.0 19.2 V 703 – Catalina Sky Survey MPS 326415
2007 10 19.35284 03 01 54.33 -00 23 17.1 20.0 V 703 – Catalina Sky Survey MPS 326415
2007 10 19.36102 03 01 54.04 -00 23 20.5 20.0 V 703 – Catalina Sky Survey MPS 326415
2007 10 19.36913 03 01 53.54 -00 23 23.7 20.1 V 703 – Catalina Sky Survey MPS 326415
2007 11 07.24023 02 47 41.17 -02 10 28.3 19.6 V 703 – Catalina Sky Survey MPS 326415
2007 11 07.24983 02 47 40.52 -02 10 30.7 20.6 V 703 – Catalina Sky Survey MPS 326415
2007 11 07.25946 02 47 40.05 -02 10 33.9 19.7 V 703 – Catalina Sky Survey MPS 326415
2007 11 07.26909 02 47 39.58 -02 10 36.7 19.2 V 703 – Catalina Sky Survey MPS 326415
2007 11 15.20485 02 41 29.40 -02 39 23.2 19.7 V 703 – Catalina Sky Survey MPS 326415
2007 11 15.21081 02 41 29.04 -02 39 24.4 19.9 V 703 – Catalina Sky Survey MPS 326415
2007 11 15.21677 02 41 28.75 -02 39 26.2 19.5 V 703 – Catalina Sky Survey MPS 326415
2007 11 15.22275 02 41 28.53 -02 39 25.6 19.2 V 703 – Catalina Sky Survey MPS 326415
2009 01 18.26234 08 34 28.74 +10 14 39.3 21.0 V 703 – Catalina Sky Survey MPS 326415
2009 01 18.27014 08 34 28.38 +10 14 42.9 20.1 V 703 – Catalina Sky Survey MPS 326415
2009 01 18.27790 08 34 28.03 +10 14 47.1   704 – Lincoln Laboratory ETS, New Mexico MPS 407550
2009 01 18.27800 08 34 27.98 +10 14 46.5 20.5 V 703 – Catalina Sky Survey MPS 326415
2009 01 18.28597 08 34 27.62 +10 14 49.6 19.8 V 703 – Catalina Sky Survey MPS 326415
2009 01 18.29053 08 34 27.41 +10 14 49.7   704 – Lincoln Laboratory ETS, New Mexico MPS 407550
2009 01 18.30313 08 34 26.77 +10 14 54.7   704 – Lincoln Laboratory ETS, New Mexico MPS 407550
2009 01 18.31574 08 34 26.10 +10 15 00.1   704 – Lincoln Laboratory ETS, New Mexico MPS 407550
2009 01 18.32837 08 34 25.48 +10 15 03.1   704 – Lincoln Laboratory ETS, New Mexico MPS 407550
2009 01 21.27543 08 32 02.47 +10 32 01.1   704 – Lincoln Laboratory ETS, New Mexico MPS 407550
2009 01 21.28805 08 32 01.90 +10 32 04.8   704 – Lincoln Laboratory ETS, New Mexico MPS 407550
2009 01 21.31346 08 32 00.64 +10 32 13.9   704 – Lincoln Laboratory ETS, New Mexico MPS 407550
2009 01 21.32636 08 32 00.05 +10 32 19.5   704 – Lincoln Laboratory ETS, New Mexico MPS 407550
2009 02 04.21679 08 20 38.61 +11 59 57.0 19.7 V G96 – Mt. Lemmon Survey MPS 326415
2009 02 04.22291 08 20 38.36 +12 00 00.0 20.0 V G96 – Mt. Lemmon Survey MPS 326415
2009 02 04.22895 08 20 38.04 +12 00 02.4 19.8 V G96 – Mt. Lemmon Survey MPS 326415
2009 02 04.23513 08 20 37.75 +12 00 04.6 19.9 V G96 – Mt. Lemmon Survey MPS 326415
2009 04 01.12248 08 05 24.93 +16 48 46.4 21.4 V G96 – Mt. Lemmon Survey MPS 326415
2009 04 01.13076 08 05 25.04 +16 48 47.7 20.6 V G96 – Mt. Lemmon Survey MPS 326415
2009 04 01.13910 08 05 25.18 +16 48 49.6 21.5 V G96 – Mt. Lemmon Survey MPS 326415
2009 04 01.14758 08 05 25.40 +16 48 50.6 20.9 V G96 – Mt. Lemmon Survey MPS 326415
2010 05 13.31425 13 48 38.26 +05 43 01.0 20.0 V G96 – Mt. Lemmon Survey MPS 327380
2010 05 13.32140 13 48 38.01 +05 43 02.1 20.2 V G96 – Mt. Lemmon Survey MPS 327380
2010 05 13.32860 13 48 37.76 +05 43 03.0 20.1 V G96 – Mt. Lemmon Survey MPS 327380
2010 05 13.33583 13 48 37.51 +05 43 03.9 20.3 V G96 – Mt. Lemmon Survey MPS 327380
2011 06 22.30156 20 36 07.49 -07 52 01.7 20.8 V 691 – Steward Observatory, Kitt Peak-Spacewatch MPS 385360
2011 06 22.31930 20 36 07.11 -07 52 03.5 20.5 V 691 – Steward Observatory, Kitt Peak-Spacewatch MPS 385360
2011 06 22.33701 20 36 06.67 -07 52 05.4 20.8 V 691 – Steward Observatory, Kitt Peak-Spacewatch MPS 385360
2011 07 26.40892 20 14 41.429 -10 22 41.20 19.8 g F51 – Pan-STARRS 1, Haleakala MPS 387238
2011 07 26.42027 20 14 40.868 -10 22 45.55 19.3 r F51 – Pan-STARRS 1, Haleakala MPS 387238
2011 07 26.43003 20 14 40.391 -10 22 49.32 19.4 r F51 – Pan-STARRS 1, Haleakala MPS 387238
2012 10 14.36731 03 04 59.52 +00 06 13.8 19.6 V 703 – Catalina Sky Survey MPS 437757
2012 10 14.37594 03 04 59.01 +00 06 09.7 19.7 V 703 – Catalina Sky Survey MPS 437757
2012 10 14.38458 03 04 58.83 +00 06 06.3 20.2 V 703 – Catalina Sky Survey MPS 437757
2012 10 14.39314 03 04 58.44 +00 06 01.7 20.2 V 703 – Catalina Sky Survey MPS 437757
2012 10 20.444565 03 01 05.024 -00 34 47.00 19.5 w F51 – Pan-STARRS 1, Haleakala MPS 439372
2012 10 20.458598 03 01 04.422 -00 34 52.44 19.8 w F51 – Pan-STARRS 1, Haleakala MPS 439372
2012 10 20.472685 03 01 03.822 -00 34 57.99 19.9 w F51 – Pan-STARRS 1, Haleakala MPS 439372
2012 11 07.40426 02 47 23.31 -02 13 51.6 18.7 V 703 – Catalina Sky Survey MPS 441495
2012 11 07.40971 02 47 23.02 -02 13 53.4 19.8 V 703 – Catalina Sky Survey MPS 441495
2012 11 07.41517 02 47 22.70 -02 13 54.9 19.3 V 703 – Catalina Sky Survey MPS 441495
2012 11 07.42066 02 47 22.59 -02 13 56.5 19.5 V 703 – Catalina Sky Survey MPS 441495
2014 01 01.31680 08 47 52.34 +08 56 48.1 20.2 V G96 – Mt. Lemmon Survey MPS 495111
2014 01 01.32425 08 47 52.08 +08 56 49.6 20.2 V G96 – Mt. Lemmon Survey MPS 495111
2014 01 01.33169 08 47 51.82 +08 56 51.1 20.3 V G96 – Mt. Lemmon Survey MPS 495111
